Location: Beadle
(51.4667°N, 109.0000°W)
Time: 22:55:41
(UTC+00:00)

X-37B - Pass Details

Date: 29 January 2022
Orbit: 329 x 342 km, 45.0° (Epoch: 18 May)

Event Time Altitude Azimuth Distance (km) Brightness Sun altitude
Rises 01:32:08 0° 213° (SSW) 2,111 5.0 -14.4°
Reaches altitude 10° 01:35:17 10° 174° (S) 1,273 3.2 -14.9°
Maximum altitude 01:36:09 11° 157° (SSE) 1,216 3.0 -15.1°
Enters shadow 01:36:23 11° 152° (SSE) 1,220 2.9 -15.1°
